Starlink 4286

operational
NORAD ID: 52990 Int'l Des: 2022-076 Owner: SPXS Country: US Constellation: starlink
LEOCIRCULAR

关于 Starlink 4286

正在加载描述...

实时位置

正在加载3D地球...

即将过境

高度历史

Altitude vs Time

uPlot chart will show altitude changes over time

两行轨道根数

1 52990U 22076E 25260.12844390 -.00000904 00000-0 -38735-4 0 9993
2 52990 53.2172 163.2646 0001489 94.8184 265.2978 15.08831171176504
Epoch: Sep 17, 2025 • Age: 13 hours

当前状态

高度 541.8 km
速度 7.60 km/s
星下点 35.29°N, 44.3°W
发射日期 Jul 7, 2022
运行时间 3.1 years
类型 internet

技术详情

分类 Payload
质量 297.00 kg
干质量 275.00 kg
总质量 297.00 kg
长度 0.20 m
直径 2.80 m
跨度 9.00 m
形状 Box + pan
制造商 SPXS
平台类型 Starlink
阶段状态 In Orbit
所有者/国家 SPXS/US

大型星座

Loading constellations...